User: anonymous   Login
Location: Benalto
(52.3088°N, 114.2787°W)
Time: 12:10:50
(UTC+00:00)
Language:

N. Korean satellite - Orbit

View from above orbital plane
View from above orbital plane
View from above satellite
View from above satellite

Ground track
Ground track

The orbit data is extracted from the following two-line orbital elements,

1 39026U 12072A   22027.91742599  .00008102  00000-0  25748-3 0  9991
2 39026  97.2605  20.8022 0031847 305.2920  54.5344 15.32387712507375
Epoch (UTC): 27 January 2022 22:01:05
Eccentricity: 0.0031847
inclination: 97.2605°
perigee height: 447 km
apogee height: 490 km
right ascension of ascending node: 20.8022°
argument of perigee: 305.2920°
revolutions per day: 15.32387712
mean anomaly at epoch: 54.5344°
orbit number at epoch: 50737

The dashed part of the orbit path shows where the satellite is in the earth's shadow,  

DLR